עמוד ראשי
METAR-TAF:

METAR-TAF

שדות תעופה :

Komakuk Beach, יוקון, קנדה

קו רוחב: 69-37N, קו אורך: 140-12W, גובה: 13מטר

תצפית מזג אוויר נוכחית

הדו"ח נערך לפני 45דקות, בשעה 19:00 UTC
רוח 6קשר מכיוון צפון
טמפרטורת 1 צלסיוס
לחות 93%
לחץ 1017 hPa

METAR: CWKM 171900Z AUTO 35006KT ////SM ////// 01/M00 A3002

זמן: 12:45 (19:45 UTC)


TAF: חסר

תצפיות ותחזיות מזג אוויר לגבי יותר מ- 4,000 שדות תעופה ברחבי העולם. דוחות METAR ו- TAF.

התחנות הזמינות מסומנות בנקודות צהובות ואדומות על גבי המפה.

העבר את העכבר לנקודה הצבעונית על מנת לראות את שם התחנה.

לאחר מכן, לחץ כדי לראות את תוכן ואת תחזיות מזג האוויר.

כדי לשנות את המפה: לחץ על הכפתורים הירוקים עם הפלוס השחור כדי להתקרב; על הכפתור הירוק עם המקף כדי להתרחק; או בחיצים הירוקים למפות סמוכות.


METAR-TAF: